TimeAKDT,TemperatureF,Dew PointF,Humidity,Sea Level PressureIn,VisibilityMPH,Wind Direction,Wind SpeedMPH,Gust SpeedMPH,PrecipitationIn,Events,Conditions,WindDirDegrees,DateUTC
12:54 AM,21.0,1.9,44,29.78,10.0,NNW,8.1,-,N/A,,Clear,330,2013-03-20 08:54:00
1:54 AM,19.9,1.0,44,29.78,10.0,NNW,9.2,-,N/A,,Clear,330,2013-03-20 09:54:00
2:54 AM,19.0,1.0,46,29.79,10.0,NNW,8.1,-,N/A,,Clear,340,2013-03-20 10:54:00
3:54 AM,19.0,-0.0,43,29.79,10.0,NNW,6.9,-,N/A,,Clear,340,2013-03-20 11:54:00
4:54 AM,18.0,-0.9,44,29.79,10.0,NW,8.1,-,N/A,,Clear,320,2013-03-20 12:54:00
5:54 AM,18.0,-2.0,41,29.80,10.0,NNW,10.4,-,N/A,,Clear,340,2013-03-20 13:54:00
6:54 AM,17.1,-2.9,41,29.81,10.0,NNW,6.9,-,N/A,,Clear,330,2013-03-20 14:54:00
7:54 AM,17.1,-4.0,39,29.81,10.0,NW,9.2,-,N/A,,Clear,320,2013-03-20 15:54:00
8:54 AM,18.0,-2.9,40,29.81,10.0,NW,9.2,-,N/A,,Clear,320,2013-03-20 16:54:00
9:54 AM,19.0,-4.0,36,29.81,10.0,WNW,15.0,26.5,N/A,,Clear,290,2013-03-20 17:54:00
10:54 AM,21.0,-0.0,40,29.80,10.0,WNW,19.6,25.3,N/A,,Clear,290,2013-03-20 18:54:00
11:54 AM,21.9,1.0,40,29.80,10.0,West,20.7,28.8,N/A,,Clear,280,2013-03-20 19:54:00
12:54 PM,23.0,-0.9,35,29.79,10.0,WNW,18.4,-,N/A,,Clear,290,2013-03-20 20:54:00
1:54 PM,24.1,1.0,37,29.80,10.0,West,16.1,-,N/A,,Clear,270,2013-03-20 21:54:00
2:54 PM,24.1,-0.0,35,29.80,10.0,West,17.3,-,N/A,,Clear,270,2013-03-20 22:54:00
3:54 PM,24.1,-2.0,32,29.80,10.0,WNW,15.0,28.8,N/A,,Clear,290,2013-03-20 23:54:00
4:54 PM,24.1,-0.0,35,29.81,10.0,West,17.3,24.2,N/A,,Clear,280,2013-03-21 00:54:00
5:54 PM,21.9,-0.9,37,29.81,10.0,West,16.1,-,N/A,,Clear,280,2013-03-21 01:54:00
6:54 PM,21.0,-2.9,35,29.83,10.0,NW,6.9,-,N/A,,Clear,310,2013-03-21 02:54:00
7:54 PM,19.0,-2.9,38,29.86,10.0,WNW,6.9,-,N/A,,Clear,300,2013-03-21 03:54:00
8:54 PM,19.0,-2.9,38,29.87,10.0,WNW,9.2,-,N/A,,Clear,300,2013-03-21 04:54:00
9:54 PM,18.0,-4.0,38,29.89,10.0,NW,9.2,-,N/A,,Clear,310,2013-03-21 05:54:00
10:54 PM,16.0,-4.0,41,29.91,10.0,NW,10.4,-,N/A,,Clear,320,2013-03-21 06:54:00
11:54 PM,15.1,-2.9,45,29.92,10.0,NW,11.5,-,N/A,,Clear,310,2013-03-21 07:54:00